Date,TemperatureHighF,TemperatureAvgF,TemperatureLowF,DewpointHighF,DewpointAvgF,DewpointLowF,HumidityHigh,HumidityAvg,HumidityLow,PressureMaxIn,PressureMinIn,WindSpeedMaxMPH,WindSpeedAvgMPH,GustSpeedMaxMPH,PrecipitationSumIn
2013-1-1,43,39,30,32,29,17,78,67,56,30.04,29.85,19,6,19,0.00
2013-1-2,34,29,25,19,17,14,70,61,53,30.21,30.00,15,4,16,0.00
2013-1-3,35,29,23,22,19,18,82,66,52,30.22,30.10,13,3,13,0.00
2013-1-4,38,34,28,25,24,22,79,66,57,30.14,30.00,25,7,25,0.00
2013-1-5,42,35,30,26,24,21,79,64,51,30.33,30.05,17,4,18,0.00
2013-1-6,47,38,32,36,31,25,96,78,57,30.26,30.00,13,2,14,0.03
2013-1-7,47,38,26,33,28,23,88,69,46,30.43,30.08,13,2,13,0.00
2013-1-8,50,36,23,36,29,21,95,80,56,30.46,30.36,19,2,20,0.00
2013-1-9,53,42,29,43,36,27,95,79,58,30.42,30.17,19,4,19,0.00
2013-1-10,50,43,33,35,29,27,83,59,43,30.56,30.28,20,4,20,0.00
2013-1-11,49,42,33,46,38,29,97,85,71,30.55,30.08,9,1,13,0.47
2013-1-12,49,46,45,47,46,44,99,97,94,30.19,30.07,7,1,8,0.00
2013-1-13,55,48,42,51,47,42,99,96,86,30.17,30.02,11,2,12,0.01
2013-1-14,59,53,40,57,48,30,100,83,46,30.30,29.94,14,3,15,0.06
2013-1-15,40,39,36,38,33,29,94,80,66,30.36,30.22,10,2,10,0.24
2013-1-16,39,37,35,38,36,33,98,96,90,30.22,29.80,14,3,15,0.68
2013-1-17,44,40,38,37,34,29,94,79,63,30.11,29.95,14,3,14,0.00
2013-1-18,38,31,25,30,17,8,75,57,38,30.52,30.00,20,4,20,0.00
2013-1-19,53,40,26,31,26,14,76,58,39,30.44,29.96,23,7,26,0.00
2013-1-20,55,44,32,33,27,16,69,52,28,30.06,29.73,27,8,29,0.00
2013-1-21,33,30,26,26,18,12,92,62,44,30.12,29.86,10,2,11,0.00
2013-1-22,26,20,14,19,4,-2,75,50,37,30.26,29.87,23,8,25,0.00
2013-1-23,21,15,9,7,2,-2,84,58,44,30.30,30.20,19,5,19,0.00
2013-1-24,25,18,9,9,4,-1,87,59,33,30.45,30.15,26,5,26,0.00
2013-1-25,25,18,10,17,8,0,89,65,45,30.47,30.09,13,3,13,0.00
2013-1-26,29,20,9,15,11,7,92,69,47,30.41,30.08,15,4,17,0.00
2013-1-27,35,25,16,17,14,9,82,63,45,30.56,30.41,14,3,15,0.00
2013-1-28,37,30,21,36,27,16,96,89,77,30.53,30.04,11,3,12,0.10
2013-1-29,54,44,35,46,41,34,97,90,72,30.16,30.03,8,2,8,0.00
2013-1-30,68,56,44,61,53,44,99,90,77,30.08,29.38,35,6,37,0.04
2013-1-31,63,46,30,60,34,13,94,64,39,29.85,29.11,42,15,42,0.86
2013-2-1,32,29,24,22,13,8,76,51,39,30.28,29.85,24,7,27,0.00
2013-2-2,31,25,18,22,11,7,90,56,39,30.34,30.07,18,5,18,0.00
2013-2-3,32,26,22,25,22,19,94,85,68,30.07,29.82,10,2,11,0.03
2013-2-4,30,27,22,25,15,12,92,63,46,30.03,29.85,22,7,25,0.01
2013-2-5,34,31,27,31,29,23,94,91,85,29.99,29.90,8,1,9,0.00
2013-2-6,40,34,29,31,26,16,96,73,50,30.38,29.93,19,4,23,0.01
2013-2-7,38,29,22,33,20,14,84,68,57,30.51,30.31,10,2,10,0.00
2013-2-8,42,37,30,40,35,29,96,93,84,30.31,29.63,23,7,23,0.78
2013-2-9,35,29,22,30,20,10,97,72,43,30.36,29.76,23,7,23,0.11
2013-2-10,42,27,12,25,14,8,87,62,29,30.51,30.34,9,2,11,0.08
2013-2-11,54,44,31,53,42,25,99,93,78,30.36,29.66,18,3,18,0.26
2013-2-12,46,41,32,43,30,26,94,64,50,29.99,29.76,24,6,25,0.01
2013-2-13,43,35,24,33,28,22,96,78,56,29.98,29.70,10,1,10,0.00
2013-2-14,47,38,33,36,33,31,96,85,54,30.04,29.72,11,2,11,0.14
2013-2-15,58,43,32,40,35,31,96,75,42,30.05,29.93,14,3,15,0.01
2013-2-16,44,37,32,35,30,18,92,76,56,29.97,29.74,13,4,16,0.00
2013-2-17,33,28,20,18,10,3,57,45,34,30.06,29.69,32,9,32,0.01
2013-2-18,36,27,18,15,9,3,55,46,35,30.29,30.06,24,7,28,0.00
2013-2-19,52,41,28,46,33,14,96,74,49,30.24,29.70,23,6,23,0.23
2013-2-20,39,32,26,29,18,12,70,56,46,30.03,29.77,26,11,42,0.01
2013-2-21,37,30,24,19,16,12,66,57,46,30.30,30.02,29,8,32,0.00
2013-2-22,37,32,23,34,25,16,92,77,66,30.42,30.27,9,2,9,0.01
2013-2-23,46,41,36,46,40,34,98,96,92,30.28,29.80,11,3,18,0.31
2013-2-24,49,40,33,41,34,24,98,80,56,30.01,29.76,14,5,24,0.01
2013-2-25,45,37,28,32,27,23,82,68,54,30.25,30.01,7,2,11,0.00
2013-2-26,45,36,26,38,31,23,92,81,61,30.29,29.83,18,5,26,0.27
2013-2-27,53,46,40,50,42,37,95,87,68,29.85,29.50,15,5,25,0.83
2013-2-28,49,43,37,39,35,29,91,72,55,29.65,29.57,10,3,15,0.01
2013-3-1,45,39,34,33,29,26,86,68,49,29.80,29.63,10,4,15,0.00
2013-3-2,42,36,30,26,24,22,71,61,51,29.81,29.71,11,4,16,0.00
2013-3-3,38,33,29,22,20,17,70,59,48,29.79,29.70,13,5,21,0.00
2013-3-4,42,34,28,22,19,16,65,54,42,29.94,29.79,18,7,25,0.00
2013-3-5,49,37,29,27,24,21,82,60,39,30.03,29.93,10,2,17,0.00
2013-3-6,41,38,29,36,32,24,89,80,73,29.97,29.76,19,9,39,0.26
2013-3-7,40,36,34,34,31,28,91,82,72,30.09,29.89,11,-2,20,0.14
2013-3-8,41,35,31,36,32,29,96,89,70,30.19,30.01,9,3,17,0.29
2013-3-9,56,42,30,30,26,20,83,58,25,30.33,30.18,8,-1,13,0.00
2013-3-10,47,37,26,39,32,24,95,83,68,30.40,30.32,8,2,12,0.00
2013-3-11,56,44,32,49,41,30,98,90,71,30.33,30.10,10,-2,14,0.00
2013-3-12,57,53,46,56,50,39,97,89,76,30.10,29.68,14,5,27,0.69
2013-3-13,50,43,36,39,32,25,87,68,41,29.92,29.82,15,5,23,0.00
2013-3-14,42,36,30,27,18,12,67,49,34,29.99,29.88,20,8,30,0.01
2013-3-15,49,39,29,29,21,12,61,49,39,30.02,29.74,16,2,23,0.00
2013-3-16,43,36,33,32,29,24,95,78,56,29.92,29.78,5,-2,9,0.03
2013-3-17,39,34,29,32,24,19,95,70,49,30.31,29.92,10,2,16,0.16
2013-3-18,38,34,28,37,26,15,96,75,55,30.41,29.96,13,5,21,0.36
2013-3-19,49,41,38,41,36,20,97,83,44,29.96,29.71,14,4,22,0.35
2013-3-20,46,38,32,28,21,18,71,50,33,29.93,29.81,18,6,25,0.00
2013-3-21,39,34,30,29,23,15,87,67,42,29.83,29.65,11,3,17,0.00
2013-3-22,41,34,28,23,20,15,71,57,42,29.92,29.77,17,3,25,0.00
2013-3-23,46,38,29,25,22,20,73,54,38,29.95,29.84,16,2,23,0.00
2013-3-24,46,38,28,28,23,20,72,54,38,29.97,29.71,9,-1,16,0.00
2013-3-25,39,36,33,34,32,28,93,85,70,29.71,29.46,10,3,21,0.59
2013-3-26,49,42,33,36,32,27,93,69,43,29.89,29.60,12,-1,18,0.00
2013-3-27,51,43,35,33,29,23,73,58,35,30.00,29.89,14,5,19,0.00
2013-3-28,49,43,35,33,30,28,79,61,46,30.13,29.99,10,3,15,0.00
2013-3-29,53,45,36,32,29,26,72,54,36,30.17,30.07,12,3,16,0.00
2013-3-30,57,45,32,34,27,19,84,52,24,30.19,30.09,11,2,16,0.00
2013-3-31,56,45,32,46,35,27,94,71,38,30.15,29.69,14,0,19,0.27
2013-4-1,62,50,38,47,38,14,94,66,34,29.93,29.64,15,6,23,0.00
2013-4-2,44,38,27,18,14,11,67,39,26,30.11,29.93,18,6,26,0.01
2013-4-3,46,39,32,18,14,10,47,36,26,30.31,30.10,17,3,26,0.00
2013-4-4,52,40,28,29,21,11,64,46,32,30.41,30.12,10,-1,17,0.00
2013-4-5,63,48,38,39,29,15,91,54,18,30.11,29.72,12,0,21,0.06
2013-4-6,50,42,35,28,22,13,71,46,25,30.33,30.01,15,3,21,0.00
2013-4-7,60,48,36,44,36,28,78,63,42,30.33,30.03,14,4,22,0.00
2013-4-8,72,60,46,50,46,41,87,61,37,30.08,29.98,9,2,13,0.00
2013-4-9,82,70,59,54,49,41,74,50,24,29.99,29.91,14,5,24,0.00
2013-4-10,81,65,56,57,52,47,92,63,40,29.94,29.78,14,3,21,0.41
2013-4-11,61,55,46,60,52,42,95,87,73,30.01,29.75,10,4,16,0.02
2013-4-12,46,44,42,44,42,41,95,93,84,30.00,29.69,13,2,24,0.89
2013-4-13,58,48,40,44,40,34,95,77,42,29.99,29.74,12,2,18,0.04
2013-4-14,60,50,39,45,36,26,95,62,32,30.21,29.98,18,3,27,0.00
2013-4-15,55,49,43,42,36,32,86,61,46,30.38,30.21,10,3,15,0.00
2013-4-16,70,57,46,56,50,42,89,76,60,30.38,30.14,11,4,21,0.00
2013-4-17,72,60,47,55,47,35,92,65,28,30.29,30.11,8,2,13,0.01
2013-4-18,59,52,43,56,47,40,94,81,64,30.34,30.09,10,2,16,0.00
2013-4-19,76,66,57,64,61,55,94,82,64,30.09,29.67,19,6,29,0.04
2013-4-20,65,52,48,62,36,25,91,58,33,30.30,29.69,16,7,22,0.20
2013-4-21,53,44,36,31,25,20,79,48,32,30.62,30.30,8,2,15,0.00
2013-4-22,48,42,31,39,34,28,92,74,59,30.64,30.48,14,5,24,0.00
2013-4-23,50,45,42,42,39,35,91,80,75,30.48,30.12,10,3,17,0.01
2013-4-24,73,54,37,54,46,34,92,74,49,30.12,29.85,11,3,17,0.00
2013-4-25,63,54,43,53,36,26,84,53,24,30.28,29.90,14,4,21,0.00
2013-4-26,64,52,36,39,34,26,89,56,24,30.40,30.28,13,2,19,0.00
2013-4-27,66,53,36,40,33,28,90,52,26,30.43,30.31,7,-2,12,0.00
2013-4-28,67,55,38,46,36,27,87,53,27,30.33,30.22,10,2,15,0.00
2013-4-29,56,54,51,50,49,46,91,84,70,30.25,30.17,10,2,17,0.16
2013-4-30,63,54,43,48,42,31,90,66,32,30.34,30.19,11,3,17,0.01
2013-5-1,62,51,37,48,40,34,94,69,40,30.49,30.33,10,3,17,0.00
2013-5-2,67,54,38,48,41,36,94,66,36,30.48,30.35,7,2,11,0.00
2013-5-3,58,51,43,46,42,35,90,70,48,30.46,30.36,11,3,21,0.00
2013-5-4,61,50,39,48,42,37,94,74,46,30.38,30.26,10,2,16,0.00
2013-5-5,56,48,39,44,41,36,92,75,61,30.30,30.23,10,2,17,0.00
2013-5-6,61,52,46,52,47,43,93,82,68,30.27,30.17,9,2,14,0.00
2013-5-7,66,56,49,58,53,47,95,89,76,30.17,30.09,9,2,14,0.04
2013-5-8,70,61,55,64,57,52,95,87,59,30.10,29.94,9,2,15,0.98
2013-5-9,70,60,54,59,55,51,95,82,58,30.01,29.91,9,2,13,0.45
2013-5-10,81,66,51,60,56,49,95,73,38,30.01,29.89,10,2,14,0.00
2013-5-11,76,66,62,66,62,57,95,87,68,29.92,29.70,11,3,22,0.78
2013-5-12,66,60,50,62,44,26,95,59,28,29.97,29.68,17,6,25,0.03
2013-5-13,56,49,40,35,30,24,75,49,31,30.12,29.97,15,4,21,0.00
2013-5-14,60,49,36,35,31,23,87,53,24,30.16,30.05,12,2,17,0.00
2013-5-15,73,61,45,58,49,32,81,67,49,30.10,29.70,12,-1,17,0.00
2013-5-16,79,67,55,61,56,49,93,70,39,29.85,29.71,11,1,17,0.01
2013-5-17,73,64,50,58,45,37,89,53,29,30.21,29.84,10,2,15,0.00
2013-5-18,65,57,50,56,52,45,91,82,64,30.32,30.20,7,1,11,0.03
2013-5-19,59,57,55,58,55,52,96,94,91,30.30,30.17,10,2,17,0.30
2013-5-20,80,68,58,69,63,57,96,87,65,30.18,29.98,7,1,13,0.05
2013-5-21,84,74,64,70,67,63,96,79,58,29.99,29.85,10,3,15,0.01
2013-5-22,85,74,67,74,68,65,94,84,59,29.93,29.83,8,3,12,0.00
2013-5-23,80,72,67,71,67,64,93,84,64,29.91,29.76,14,5,22,0.22
2013-5-24,67,56,44,64,53,41,95,90,78,29.98,29.70,10,3,19,0.36
2013-5-25,58,51,44,45,40,34,92,70,44,30.04,29.94,16,6,30,0.12
2013-5-26,68,57,46,42,37,32,74,50,27,30.21,30.01,17,5,24,0.00
2013-5-27,72,58,38,45,39,34,92,55,27,30.27,30.15,11,2,16,0.00
2013-5-28,66,59,48,60,53,45,95,83,57,30.24,30.12,6,-3,12,0.37
2013-5-29,87,72,58,70,63,56,96,75,46,30.14,30.02,10,3,17,0.01
2013-5-30,91,80,69,69,65,60,86,63,37,30.15,30.06,8,3,12,0.00
2013-5-31,92,80,68,71,64,53,91,62,28,30.14,30.00,9,3,14,0.00
2013-6-1,89,79,68,69,66,63,88,67,44,30.04,29.91,11,4,18,0.00
2013-6-2,88,78,70,71,68,65,89,73,52,29.93,29.80,18,6,30,0.05
2013-6-3,78,71,66,70,67,62,94,88,72,29.88,29.79,8,2,11,0.53
2013-6-4,74,65,55,62,49,43,90,58,33,30.11,29.88,10,3,13,0.00
2013-6-5,71,62,48,55,50,43,92,68,49,30.21,30.10,7,2,12,0.00
2013-6-6,70,63,57,61,58,49,95,84,49,30.14,30.00,9,2,14,0.07
2013-6-7,69,63,61,67,62,58,96,95,92,30.00,29.57,8,2,15,0.92
2013-6-8,77,67,58,66,62,56,96,83,64,30.06,29.55,9,3,15,0.68
2013-6-9,81,70,57,64,60,56,95,72,46,30.19,30.06,8,1,12,0.14
2013-6-10,70,67,64,69,65,61,96,92,81,30.16,29.81,6,2,10,0.04
2013-6-11,81,74,68,69,66,61,94,77,58,29.81,29.65,13,5,19,0.02
2013-6-12,80,72,62,61,57,53,86,62,40,29.86,29.74,12,4,22,0.01
2013-6-13,74,65,59,67,61,56,94,85,64,29.85,29.42,11,2,21,0.01
2013-6-14,71,61,54,60,55,51,93,82,58,29.91,29.48,9,2,22,1.03
2013-6-15,80,68,55,61,56,50,93,69,37,30.03,29.91,9,2,14,0.00
2013-6-16,83,70,57,65,60,54,93,73,49,30.01,29.81,15,3,23,0.00
2013-6-17,85,73,64,71,66,62,95,79,52,29.93,29.84,10,2,15,0.21
2013-6-18,78,67,62,70,64,61,95,90,71,29.91,29.80,10,1,14,0.78
2013-6-19,77,67,57,63,56,48,94,70,37,30.17,29.86,6,1,11,0.01
2013-6-20,78,67,54,59,55,51,95,68,44,30.28,30.17,8,2,13,0.00
2013-6-21,80,68,54,60,55,51,93,65,44,30.32,30.25,8,-2,13,0.00
2013-6-22,82,69,55,65,59,53,94,71,44,30.27,30.14,7,-2,11,0.00
2013-6-23,85,73,61,74,65,55,94,77,57,30.21,30.07,12,2,19,0.77
2013-6-24,90,77,71,75,70,61,95,79,49,30.09,29.98,13,3,20,0.02
2013-6-25,90,78,67,73,68,64,93,74,51,30.01,29.83,13,3,17,0.00
2013-6-26,88,78,71,73,67,63,93,71,45,29.87,29.77,10,4,15,0.04
2013-6-27,86,77,71,75,71,69,95,83,60,29.84,29.58,11,2,19,0.11
2013-6-28,85,77,71,71,69,66,92,79,57,29.60,29.49,9,4,15,0.02
2013-6-29,84,75,66,73,68,64,94,81,54,29.71,29.50,8,2,14,0.00
2013-6-30,84,74,69,76,71,67,95,89,73,29.91,29.71,6,1,9,0.16
2013-7-1,81,75,72,75,72,69,94,91,78,30.05,29.90,11,2,16,0.68
2013-7-2,84,76,73,74,72,69,93,87,70,30.20,30.05,11,3,22,0.26
2013-7-3,83,76,70,78,72,68,94,88,76,30.26,30.16,8,2,14,0.25
2013-7-4,88,80,73,75,73,70,95,80,56,30.26,30.17,10,4,16,0.00
2013-7-5,90,81,71,75,71,69,94,75,52,30.23,30.10,11,3,16,0.00
2013-7-6,92,83,74,76,73,71,93,73,52,30.16,30.03,10,4,16,0.00
2013-7-7,92,83,74,76,73,69,91,72,54,30.08,29.94,10,4,15,0.00
2013-7-8,86,77,70,72,69,66,89,78,56,30.07,29.99,9,3,14,0.00
2013-7-9,87,78,69,74,70,66,93,77,58,30.08,29.99,10,2,15,0.00
2013-7-10,86,80,72,76,72,69,92,80,62,30.03,29.82,12,4,18,0.00
2013-7-11,84,78,74,74,71,66,94,80,59,29.91,29.82,7,2,11,0.23
2013-7-12,75,72,68,69,66,63,94,84,72,30.06,29.91,11,3,17,0.67
2013-7-13,85,76,70,76,72,68,96,89,69,30.28,30.06,8,-2,13,0.12
2013-7-14,89,80,73,75,73,71,95,79,58,30.34,30.25,7,2,12,0.00
2013-7-15,93,83,73,76,73,70,93,74,53,30.27,30.12,8,2,13,0.00
2013-7-16,93,83,73,74,70,66,93,69,42,30.20,30.12,5,1,11,0.00
2013-7-17,94,83,71,74,71,69,94,70,46,30.19,30.07,6,1,8,0.00
2013-7-18,95,85,74,77,73,69,86,69,46,30.09,29.96,8,2,12,0.00
2013-7-19,95,86,78,80,76,74,90,72,52,29.99,29.82,12,4,19,0.00
2013-7-20,92,84,77,75,73,70,82,71,53,29.84,29.74,13,4,19,0.01
2013-7-21,84,77,72,73,70,64,93,80,52,29.95,29.83,7,2,13,0.02
2013-7-22,84,76,73,76,73,71,95,90,73,29.95,29.79,7,1,10,0.99
2013-7-23,86,77,70,74,72,68,96,85,62,29.79,29.58,11,2,16,0.40
2013-7-24,81,76,70,71,66,57,91,73,59,29.92,29.63,7,2,12,0.02
2013-7-25,70,66,64,60,57,55,84,74,64,30.04,29.91,7,2,14,0.00
2013-7-26,80,71,64,66,62,59,88,74,51,30.06,29.99,6,2,9,0.00
2013-7-27,82,72,62,68,64,60,95,78,51,30.07,29.96,8,2,12,0.00
2013-7-28,80,72,63,71,67,61,96,86,66,30.00,29.90,9,1,17,0.14
2013-7-29,83,74,66,69,64,54,95,73,41,30.12,29.95,9,2,13,0.03
2013-7-30,80,70,58,61,58,55,92,68,47,30.18,30.11,9,2,13,0.00
2013-7-31,81,70,58,64,60,56,94,73,48,30.17,30.05,6,1,10,0.00
2013-8-1,72,69,67,68,65,62,95,88,79,30.05,29.83,7,1,11,0.88
2013-8-2,83,74,67,67,65,61,95,75,48,29.94,29.81,12,2,16,0.00
2013-8-3,76,71,66,68,65,63,91,84,70,29.94,29.87,9,2,13,0.03
2013-8-4,78,70,61,64,59,52,96,70,45,29.99,29.85,11,2,16,0.01
2013-8-5,77,68,59,59,53,46,82,61,36,30.07,29.98,8,2,11,0.00
2013-8-6,79,69,55,64,58,53,94,70,43,30.13,30.05,9,1,14,0.00
2013-8-7,78,72,66,68,66,63,90,82,67,30.15,30.07,8,2,13,0.00
2013-8-8,84,75,70,76,71,68,94,87,73,30.08,30.00,8,2,14,0.38
2013-8-9,85,78,74,76,73,70,92,86,73,30.03,29.82,12,3,17,0.03
2013-8-10,81,76,68,73,67,62,94,76,55,30.05,29.87,8,2,13,0.00
2013-8-11,82,71,60,66,61,56,93,73,49,30.13,30.03,7,1,11,0.00
2013-8-12,80,72,66,72,68,64,95,87,71,30.05,29.93,5,0,8,0.02
2013-8-13,78,71,67,72,68,65,96,92,74,29.94,29.71,7,1,10,1.04
2013-8-14,73,67,57,67,54,48,86,65,47,30.06,29.75,13,3,20,0.00
2013-8-15,77,65,52,57,52,46,93,67,36,30.16,30.06,7,1,9,0.00
2013-8-16,79,66,53,59,54,50,94,69,38,30.22,30.14,6,1,10,0.00
2013-8-17,79,67,53,63,57,51,94,73,43,30.28,30.21,6,1,9,0.00
2013-8-18,76,67,60,66,60,56,93,80,53,30.26,30.14,5,1,9,0.01
2013-8-19,76,68,59,65,61,56,94,78,54,30.15,30.05,8,2,11,0.00
2013-8-20,86,74,62,70,65,60,95,77,49,30.14,30.07,7,1,10,0.00
2013-8-21,87,75,64,70,65,58,95,74,38,30.18,30.07,6,1,11,0.01
2013-8-22,81,74,70,73,69,67,94,86,71,30.08,29.89,9,2,15,0.10
2013-8-23,81,73,62,68,63,52,93,74,38,30.09,29.89,6,-2,13,0.00
2013-8-24,77,68,58,60,57,49,91,69,38,30.35,30.09,8,1,12,0.00
2013-8-25,80,66,52,60,54,50,95,68,37,30.41,30.26,8,2,11,0.00
2013-8-26,83,72,62,66,62,53,85,71,52,30.27,29.93,12,4,17,0.00
2013-8-27,87,77,70,70,68,66,91,75,51,29.94,29.85,10,2,15,0.05
2013-8-28,81,73,66,73,69,64,95,88,72,29.90,29.84,6,0,9,0.05
2013-8-29,78,72,67,69,67,64,95,86,69,30.04,29.87,7,2,12,0.01
2013-8-30,82,73,67,70,67,65,92,83,66,30.03,29.88,9,3,14,0.00
2013-8-31,87,77,70,74,70,67,92,81,63,29.90,29.80,9,4,13,0.00
2013-9-1,86,76,71,75,71,68,95,86,63,29.86,29.79,11,2,15,0.16
2013-9-2,80,75,70,74,72,69,96,92,75,29.81,29.72,7,0,10,0.20
2013-9-3,81,73,64,72,66,58,96,81,48,29.90,29.72,9,2,15,0.01
2013-9-4,80,69,58,60,58,53,93,70,45,30.02,29.89,10,2,14,0.00
2013-9-5,78,68,54,62,55,44,90,66,35,30.15,29.96,9,2,15,0.00
2013-9-6,72,60,50,50,47,42,90,65,35,30.26,30.14,6,1,11,0.00
2013-9-7,77,62,45,57,49,43,94,69,34,30.15,29.93,9,2,12,0.00
2013-9-8,82,70,61,66,58,46,93,68,44,30.07,29.84,9,2,15,0.00
2013-9-9,72,63,49,59,53,46,93,72,53,30.24,30.08,7,-2,11,0.00
2013-9-10,86,75,64,73,68,59,88,79,65,30.19,30.06,10,3,14,0.00
2013-9-11,92,81,72,77,72,70,93,76,54,30.13,29.99,9,2,13,0.00
2013-9-12,86,76,70,75,70,67,92,84,61,30.01,29.70,10,2,16,0.30
2013-9-13,75,68,59,67,61,50,95,78,55,29.87,29.65,11,2,16,0.06
2013-9-14,66,58,49,50,48,45,87,71,53,30.15,29.87,9,2,15,0.00
2013-9-15,72,57,43,54,48,41,94,73,43,30.24,30.10,9,2,13,0.01
2013-9-16,70,61,55,60,55,51,93,81,61,30.23,30.05,6,-6,10,0.10
2013-9-17,63,55,44,51,42,38,91,63,41,30.43,30.23,8,2,16,0.00
2013-9-18,71,54,39,53,45,38,95,75,44,30.36,30.21,7,1,10,0.00
2013-9-19,75,59,43,57,50,41,95,76,43,30.22,30.09,7,1,10,0.00
2013-9-20,78,62,47,61,54,45,95,78,42,30.11,30.01,8,1,13,0.00
2013-9-21,78,66,50,67,60,48,96,82,47,30.03,29.69,15,2,21,0.07
2013-9-22,69,63,54,67,53,42,95,72,45,29.93,29.66,12,2,17,0.81
2013-9-23,66,56,47,47,43,41,82,64,47,30.05,29.92,10,2,16,0.00
2013-9-24,70,55,44,52,46,41,90,73,46,30.08,29.90,11,2,13,0.00
2013-9-25,72,57,43,54,47,41,94,74,40,29.98,29.89,6,0,10,0.00
2013-9-26,70,58,46,60,53,44,95,84,64,30.10,29.95,7,1,11,0.00
2013-9-27,67,60,50,57,53,49,96,80,59,30.27,30.10,5,1,9,0.00
2013-9-28,71,61,51,56,53,48,93,75,50,30.32,30.24,9,-6,15,0.00
2013-9-29,69,57,46,60,50,44,96,81,60,30.24,30.09,6,-2,10,0.00
2013-9-30,72,57,44,57,50,42,96,80,49,30.09,29.99,6,-3,9,0.01
2013-10-1,79,63,49,61,55,48,95,78,50,30.03,29.92,9,1,12,0.01
2013-10-2,82,67,53,63,58,51,96,77,47,30.03,29.93,11,2,15,0.00
2013-10-3,79,66,54,62,57,53,95,76,48,30.13,30.03,6,1,14,0.00
2013-10-4,84,70,56,67,61,54,95,77,51,30.08,29.98,8,1,11,0.00
2013-10-5,77,68,64,67,64,62,95,88,71,30.10,30.01,6,-2,10,0.00
2013-10-6,74,67,64,68,65,63,96,93,83,30.09,30.02,6,1,10,0.00
2013-10-7,77,68,59,70,64,54,96,89,75,30.02,29.80,18,2,25,0.43
2013-10-8,66,57,50,54,48,45,92,75,46,30.31,30.01,5,0,10,0.00
2013-10-9,61,58,52,51,49,42,82,72,57,30.37,30.25,10,3,17,0.00
2013-10-10,62,58,54,58,54,50,93,87,77,30.26,30.04,9,3,15,0.17
2013-10-11,64,62,60,61,59,57,94,90,84,30.07,29.98,9,4,17,0.32
2013-10-12,68,63,60,58,54,48,86,73,58,30.25,30.05,12,4,25,0.00
2013-10-13,63,59,54,55,52,49,83,77,64,30.37,30.25,10,4,20,0.00
2013-10-14,65,54,45,53,48,42,95,81,60,30.36,30.26,6,1,10,0.00
2013-10-15,69,54,42,57,47,41,96,79,40,30.27,30.11,7,-3,11,0.00
2013-10-16,67,60,49,60,56,47,95,89,74,30.12,29.94,5,1,8,0.00
2013-10-17,72,64,60,63,60,58,95,88,71,29.94,29.72,7,1,11,0.00
2013-10-18,66,60,46,62,47,41,88,65,46,30.01,29.71,15,5,22,0.00
2013-10-19,64,52,39,55,46,37,94,81,61,30.01,29.78,7,1,10,0.01
2013-10-20,62,53,40,55,41,35,91,68,38,30.09,29.79,11,4,17,0.01
2013-10-21,67,51,36,47,40,34,94,70,36,30.17,30.01,9,-2,14,0.00
2013-10-22,68,52,40,52,44,38,95,77,48,30.01,29.78,12,2,16,0.00
2013-10-23,55,47,38,47,40,36,93,79,57,29.83,29.62,7,1,14,0.02
2013-10-24,52,44,37,37,32,26,86,65,39,30.05,29.79,13,4,24,0.00
2013-10-25,53,43,34,35,32,29,86,65,43,30.27,30.05,10,3,15,0.00
2013-10-26,55,43,29,35,31,26,93,67,37,30.26,29.93,14,3,26,0.00
2013-10-27,57,48,36,36,34,31,83,59,40,30.15,29.89,12,3,18,0.00
2013-10-28,61,44,30,38,34,28,92,70,40,30.31,30.15,10,2,18,0.00
2013-10-29,58,46,37,43,38,34,91,77,52,30.41,30.32,7,1,13,0.00
2013-10-30,59,48,38,54,45,35,93,89,78,30.36,30.20,7,-3,9,0.00
2013-10-31,69,61,51,61,56,48,95,84,70,30.24,29.83,10,3,16,0.02
2013-11-1,69,65,56,63,59,54,94,82,62,29.83,29.59,16,5,27,0.18
2013-11-2,69,58,51,58,49,40,96,75,41,29.80,29.63,8,-3,13,0.01
2013-11-3,52,46,34,42,33,22,85,64,40,30.45,29.80,8,2,16,0.00
2013-11-4,46,37,28,29,24,20,85,61,41,30.66,30.45,8,-2,13,0.00
2013-11-5,56,44,31,43,37,28,92,78,58,30.65,30.49,7,1,10,0.00
2013-11-6,63,50,33,55,44,31,95,80,58,30.51,30.08,8,2,13,0.00
2013-11-7,63,56,37,59,51,32,92,84,67,30.09,29.78,11,4,16,0.10
2013-11-8,49,42,32,36,30,26,86,63,44,30.26,29.97,15,4,22,0.00
2013-11-9,50,41,27,35,29,24,90,63,40,30.32,30.02,9,2,14,0.00
2013-11-10,61,49,41,38,32,26,76,54,35,30.09,29.85,21,7,30,0.00
2013-11-11,54,48,39,36,30,25,60,49,36,30.24,30.00,11,5,18,0.00
2013-11-12,50,38,29,37,26,17,90,63,47,30.32,29.95,12,0,20,0.03
2013-11-13,40,32,26,19,16,10,68,54,30,30.40,30.31,11,3,18,0.00
2013-11-14,54,41,28,22,17,10,71,42,18,30.32,30.20,14,5,22,0.00
2013-11-15,59,43,29,34,29,22,88,61,28,30.28,30.18,6,1,8,0.00
2013-11-16,55,46,38,48,41,31,94,83,72,30.35,30.25,5,0,8,0.06
2013-11-17,65,56,44,60,54,42,95,92,80,30.28,29.81,7,1,12,0.00
2013-11-18,65,60,50,62,42,27,94,55,27,29.81,29.64,14,6,24,0.27
2013-11-19,50,44,34,29,25,22,62,48,42,30.36,29.81,14,5,22,0.00
2013-11-20,45,35,26,23,19,10,76,54,25,30.61,30.36,7,-9,11,0.00
2013-11-21,53,42,26,42,34,19,82,73,59,30.61,30.40,8,1,12,0.00
2013-11-22,57,52,46,50,47,41,91,85,74,30.40,29.94,10,3,16,0.01
2013-11-23,53,43,31,49,28,15,88,56,39,30.06,29.93,16,2,25,0.00
2013-11-24,31,26,23,15,3,0,51,37,30,30.43,30.04,17,7,29,0.00
2013-11-25,36,28,20,17,12,3,69,51,38,30.53,30.37,9,0,14,0.00
2013-11-26,55,39,31,53,30,17,94,71,47,30.37,29.73,11,2,23,0.52
2013-11-27,63,48,34,61,44,21,94,87,57,29.80,29.37,14,7,27,1.60
2013-11-28,36,31,26,23,17,12,76,56,37,30.50,29.80,17,5,24,0.00
2013-11-29,40,32,23,25,21,18,89,65,45,30.74,30.49,9,-2,13,0.00
2013-11-30,38,32,24,30,23,14,81,69,59,30.75,30.38,7,1,10,0.00
2013-12-1,50,40,30,35,32,26,88,72,52,30.38,30.03,6,1,9,0.00
2013-12-2,52,40,31,33,31,28,91,73,42,30.03,29.90,3,0,5,0.00
2013-12-3,53,41,32,40,35,30,93,81,54,30.02,29.89,6,1,8,0.00
2013-12-4,53,42,31,45,38,28,93,84,65,30.14,30.02,3,0,5,0.00
2013-12-5,62,54,47,57,52,45,96,92,82,30.13,29.95,10,1,16,0.02
2013-12-6,62,50,38,60,48,36,96,93,89,30.15,29.89,10,2,15,0.48
2013-12-7,40,36,30,36,30,21,94,78,61,30.53,30.08,10,2,17,0.11
2013-12-8,34,30,26,32,23,16,94,78,60,30.61,30.35,6,-2,10,0.02
2013-12-9,41,37,33,39,35,32,95,94,92,30.35,29.99,10,0,14,0.65
2013-12-10,35,32,26,32,29,21,94,90,75,30.18,29.87,9,-4,14,0.06
2013-12-11,33,28,22,21,18,15,83,67,52,30.38,30.18,12,3,21,0.01
2013-12-12,28,23,19,18,11,6,87,61,42,30.38,30.21,10,2,16,0.00
2013-12-13,36,27,18,20,14,9,80,60,45,30.35,30.18,14,0,19,0.00
2013-12-14,49,32,25,47,28,20,96,86,72,30.47,29.71,10,3,17,0.98
2013-12-15,53,37,31,52,32,22,96,82,60,29.89,29.50,14,5,23,0.31
2013-12-16,33,27,18,23,14,9,82,59,42,30.26,29.88,13,4,21,0.00
2013-12-17,37,29,21,35,25,15,93,86,65,30.24,29.93,11,-6,16,0.09
2013-12-18,38,29,23,26,21,19,88,73,52,30.21,29.93,12,-3,19,0.00
2013-12-19,48,36,25,30,26,19,83,69,46,30.23,30.06,9,2,15,0.00
2013-12-20,55,45,31,50,35,27,89,71,45,30.12,30.00,10,3,16,0.00
2013-12-21,68,58,51,56,51,47,86,77,60,30.02,29.91,13,4,22,0.00
2013-12-22,71,65,61,63,59,56,89,82,72,29.99,29.82,18,6,32,0.05
2013-12-23,63,56,42,62,53,34,95,90,76,30.17,29.89,10,2,19,0.50
2013-12-24,42,36,27,34,24,12,76,61,48,30.37,30.11,13,4,19,0.00
2013-12-25,30,25,19,17,11,8,69,55,43,30.55,30.37,12,2,19,0.00
2013-12-26,39,29,21,27,22,16,88,76,59,30.44,30.19,11,-2,18,0.00
2013-12-27,43,31,21,23,20,16,90,69,39,30.40,30.29,11,2,15,0.00
2013-12-28,56,40,22,30,26,20,90,60,34,30.32,30.11,15,3,26,0.00
2013-12-29,49,43,41,48,37,28,95,80,57,30.10,29.41,11,3,18,0.97
2013-12-30,46,37,24,40,30,14,92,74,56,30.20,29.73,12,4,19,0.00
2013-12-31,37,28,20,26,16,11,74,59,47,30.32,30.09,18,0,26,0.00
2014-1-1,37,30,22,28,18,10,77,62,50,30.44,30.24,11,-2,16,0.00
2014-1-2,36,30,22,31,26,20,91,86,77,30.23,29.64,9,0,15,0.00